GFSMW_prec_radar_261.txt.gz
Reflectivity
-20 -20 -20 -20 -20 -20 -20 -20 -20 -20 -20 -20 -20 -20 -20 -20 -20 -20 -20 -20 -20 -20 -20 -20 -20 -20 -20 -20 -20 -20 -20 -20 -20 -20 -20 -20 -20 -20 -20 -20 -20 4 -20
-20 -20 -20 -20 -20 -20 -20 -20 -20 -20 -20 -20 -20 -20 -20 -20 -20 -20 -20 -20 -20 -20 -20 -20 -20 -20 -20 -20 -20 -20 -20 -20 -20 -20 -20 -20 -20 -20 -20 -20 -20 -20 -20
-20 -20 -20 -20 -20 -20 -20 -20 -20 -20 -20 -20 -20 -20 -20 -20 -20 -20 -20 -20 -20 -20 -20 -20 -20 -20 -20 -20 -20 -20 -20 -20 -20 -20 -20 -20 -20 -20 -20 -20 -20 -20 -20
-20 -20 -20 -20 -20 -20 -20 -20 -20 -20 -20 -20 -20 -20 -20 -20 -20 -20 -20 -20 -20 -20 -20 -20 -20 -20 -20 -20 -20 -20 -20 -20 -20 -20 -20 -20 -20 -20 -20 -20 -20 -20 -20
-20 -20 -20 -20 -20 -20 -20 -20 -20 -20 -20 -20 -20 -20 -20 -20 -20 -20 -20 -20 -20 -20 -20 -20 -20 -20 -20 -20 -20 -20 -20 -20 -20 -20 -20 -20 -20 -20 -20 -20 -20 -20 -20
-20 -20 -20 -20 -20 -20 -20 -20 -20 -20 -20 -20 -20 -20 -20 -20 -20 -20 -20 -20 -20 -20 -20 -20 -20 -20 -20 -20 -20 -20 -20 -20 -20 -20 -20 -20 -20 -20 -20 -20 -20 -20 -20
-20 -20 -20 -20 -20 -20 -20 -20 -20 -20 -20 -20 -20 -20 -20 -20 -20 -20 -20 -20 -20 -20 -20 -20 -20 -20 -20 -20 -20 -20 -20 -20 -20 -20 -20 -20 -20 -20 -20 -20 -17 -20 -20
-20 -20 -20 -20 -20 -20 -20 -20 -20 -20 -20 -20 -20 -20 -20 -20 -20 -20 -20 -20 -20 -20 -20 -20 -20 -20 -20 -20 -20 -20 -20 -20 -20 -20 -20 -20 -20 -20 -20 -20 -20 -20 -20
-20 -20 -20 -20 -20 -20 -20 -20 -20 -20 -20 -20 -20 -20 -20 -20 -20 -20 -20 -20 -20 -20 -20 -20 -20 -20 -20 -20 -20 -20 -20 -20 -20 5 -15 -20 -20 -20 -20 -20 -20 -20 -20
-20 -20 -20 -20 -20 -20 -20 -20 -20 -20 -20 -20 -20 -20 -20 -20 -20 -20 -20 -20 -20 -20 -20 -20 -20 -20 -20 -20 -20 -20 -20 15 6 -0 -2 -20 -20 -20 -12 -18 -20 -12 -16
-20 -20 -20 -20 -20 -20 -20 -20 -20 -20 -20 -20 -20 -20 -20 -20 -20 -20 -20 -20 -20 -20 -20 -20 -20 -20 -20 -20 -20 -5 20 -4 11 11 -19 -20 -20 -18 -20 -20 -20 -20 -20
-20 -20 -20 -20 -20 -20 -20 -20 -20 -20 -20 -20 -20 -20 -20 -20 -20 -20 -20 -20 -20 -20 -20 -20 -18 -20 -20 2 -14 13 -19 13 -0 26 16 -20 -20 -20 -20 -20 -20 -20 -20
-20 -20 -20 -20 -20 -20 -20 -20 -20 -20 -20 -20 -20 -20 -20 -20 -20 -20 -20 -20 -20 -20 -20 -20 -1 -20 -20 11 30 17 8 23 28 26 8 -13 -20 -20 -20 -20 -20 -20 -20
-20 -20 -20 -20 -20 -20 -20 -9 -20 -20 -20 -20 -20 -20 -20 -20 -20 -20 -20 -20 -20 -20 -20 -9 -0 -5 2 2 21 19 22 28 30 24 12 -17 -13 -11 -20 -20 -20 -20 -20
-20 -20 -17 -20 -20 -20 9 -9 -20 -20 -20 -20 -20 -20 -20 -20 -20 -20 -20 -20 -20 -20 -15 -9 8 23 6 -4 10 21 27 27 30 23 22 2 -2 4 1 -18 -20 -20 -20
-20 -16 1 -20 -20 10 -15 -20 -20 -20 -20 -20 -20 -20 -20 -20 -20 -20 -20 -20 -20 -9 10 14 11 14 16 28 24 24 25 29 28 25 21 26 12 -2 3 -20 -20 -20 -20
3 27 25 27 14 -16 -16 -18 -20 -20 -20 -20 -20 -20 -20 -20 -20 -19 -20 -20 -12 -2 5 2 6 17 23 30 29 29 26 30 29 28 29 22 -11 -8 -20 -13 -20 -20 -20
-10 -14 -16 -20 -20 -14 -15 -20 -20 -20 -20 -20 -20 -20 -20 -19 1 -20 -20 -19 -1 9 3 4 19 17 25 22 27 24 27 25 22 18 -9 -15 6 -16 -15 -20 -20 -20 -20
-20 -20 -20 -20 -20 -20 -20 -20 -20 -20 -20 -20 -20 -20 -20 -20 -16 -4 8 7 21 25 25 27 21 22 22 22 23 16 13 -7 -20 -20 -20 -13 -13 20 -9 -12 -20 -20 -20
-20 -20 -20 -20 -20 -20 -20 -20 -20 -20 -20 -20 -20 -20 -20 -20 -20 -20 -20 3 4 13 31 28 8 20 14 19 -7 -20 -20 -20 -20 -20 -13 12 11 18 8 -9 -20 -20 -20
-20 -20 -17 -15 -20 -20 -20 -20 -20 -20 -20 -20 -20 -20 -20 -20 -20 -20 -20 -10 5 6 13 25 -1 8 20 -14 1 -20 -20 -20 -20 -20 -14 -7 14 18 10 -1 -20 -20 -20
-8 1 -5 -12 -15 -20 -20 -20 -20 -20 -20 -20 -20 -20 -20 -20 -20 -12 -16 -9 -2 2 2 18 19 23 23 13 0 -18 -20 -20 -20 -20 -18 5 20 21 13 -6 -20 -20 -20
-20 -20 -20 -20 -20 -20 -20 -20 -20 -20 -20 -20 -20 -20 -12 -20 -14 -7 12 10 16 12 21 21 27 23 22 20 -14 -20 -1 -10 -20 -20 -20 -20 -4 3 13 -20 -20 -20 -20
-20 1 -17 -20 -20 -20 -20 -20 -20 -20 -20 -20 -16 -14 -3 2 3 -9 11 15 8 21 22 22 24 24 26 -6 -20 -20 2 -13 -20 -20 -20 -20 -20 -20 -20 -20 -20 -20 -20
-20 -17 -16 -16 -20 -20 -20 -20 -20 -20 -20 -20 -20 9 -4 6 8 7 14 17 13 7 22 19 18 16 14 -8 -20 -20 3 -20 -20 -20 -20 -20 -20 -20 -20 -20 -20 -20 -20
16 -12 1 -4 -20 -20 -18 -20 -20 -20 -20 -20 -20 -20 -4 -9 -14 12 2 14 6 7 7 -17 14 17 -1 9 -2 0 4 -19 -20 -20 -20 -20 -20 -20 -20 -20 -20 -20 -20

GFSMW_prec_radar_264.txt.gz
Reflectivity
-20 -20 -20 -20 -20 -20 -20 -20 -20 -20 -20 -20 -20 -20 -20 -20 -20 -20 -20 -20 -20 -20 -20 -20 -20 -20 -20 -20 -20 -20 -20 -20 -20 -20 -20 -20 -20 -20 -20 -20 -20 -20 -20
-20 -20 -20 -20 -20 -20 -20 -20 -20 -20 -20 -20 -20 -20 -20 -20 -20 -20 -20 -20 -20 -20 -20 -20 -20 -20 -20 -20 -20 -20 -20 -20 -20 -20 -20 -20 -20 -20 -20 -20 -20 -20 -20
-20 -20 -20 -20 -20 -20 -20 -20 -20 -20 -20 -20 -20 -20 -20 -20 -20 -20 -20 -20 -20 -20 -20 -20 -20 -20 -20 -20 -20 -20 -20 -20 -20 -20 -20 -20 -20 -20 -20 -20 -20 -20 -20
-20 -20 -20 -20 -20 -20 -20 -20 -20 -20 -20 -20 -20 -20 -20 -20 -20 -20 -20 -20 -20 -20 -20 -20 -20 -20 -20 -20 -20 -20 -20 -20 -20 -20 -20 -20 -20 -20 -20 -20 -20 -20 -20
-20 -20 -20 -20 -20 -20 -20 -20 -20 -20 -20 -20 -20 -20 -20 -20 -20 -20 -20 -20 -20 -20 -20 -20 -20 -20 -20 -20 -20 -20 -20 -20 -20 -20 -20 -20 -20 -20 -20 -20 -20 -20 -20
-20 -20 -20 -20 -20 -20 -20 -20 -20 -20 -20 -20 -20 -20 -20 -20 -20 -20 -20 -20 -20 -20 -20 -20 -20 -20 -20 -20 -20 -20 -20 -20 -20 -20 -20 -20 -20 -20 -20 -20 -20 -20 -20
-20 -20 -20 -20 -20 -20 -20 -20 -20 -20 -20 -20 -20 -20 -20 -20 -20 -20 -20 -20 -20 -20 -20 -20 -20 -20 -20 -20 -20 -20 -20 -20 -20 -20 -20 -20 -20 -20 -20 -20 -20 -20 -20
-20 -20 -20 -20 -20 -20 -20 -20 -20 -20 -20 -20 -20 -20 -20 -20 -20 -20 -20 -20 -20 -20 -20 -20 -20 -20 -20 -20 -20 -20 -20 -20 -20 -20 -20 -20 -20 -20 -20 -20 -20 -20 -17
-20 -20 -20 -20 -20 -20 -20 -20 -20 -20 -20 -20 -20 -20 -20 -20 -20 -20 -20 -20 -20 -20 -20 -20 -20 -20 -20 -20 -20 -20 -20 -20 -20 -20 -20 -20 -18 -20 -13 -12 -20 -20 -19
-20 -20 -20 -20 -20 -20 -20 -20 -20 -20 -20 -20 -20 -20 -20 -20 -20 -20 -20 -20 -20 -20 -20 -20 -20 -20 -20 -20 -20 -20 -20 -20 -20 -20 -20 -5 16 6 5 -18 -20 -20 -16
-20 -20 -20 -20 -20 -20 -20 -20 -20 -20 -20 -20 -20 -20 -20 -20 -20 -20 -20 -20 -20 -20 -20 -20 -20 -20 -20 -20 -20 -20 -20 -20 -20 -20 3 25 19 25 7 -20 -20 -20 -20
-20 -20 -20 -20 -20 -20 -20 -20 -20 -20 -20 -20 -20 -20 -20 -20 -20 -20 -20 -20 -20 -20 -20 -20 -20 -20 -20 -20 -20 -20 -20 -20 5 18 30 27 12 13 -2 -20 -20 -20 -18
-20 -20 -20 -1 -7 -15 -5 -15 -20 -20 -20 -20 -20 -20 -20 -20 -20 -20 -20 -20 -20 -20 -20 -20 -20 -20 -20 -19 -15 -20 -20 -19 21 27 27 27 23 14 -19 -7 -20 -11 -20
-20 -20 -20 -20 -10 -20 -20 -20 -20 -20 -20 -20 -20 -20 -20 -20 -20 -20 -20 -20 -20 -20 -20 -20 -20 -20 -19 -20 -16 -20 -8 3 19 30 28 31 30 14 13 5 5 -20 -20
-20 -20 -5 -20 -20 -20 -20 -20 -20 -20 -15 7 -20 -20 -20 -20 -20 -20 -20 -20 -20 -20 -20 -20 -20 -19 -12 -8 10 13 14 18 27 24 27 33 27 21 5 14 0 -20 -20
-20 -20 -18 -6 -13 -20 -20 -20 -4 -10 22 11 4 -20 -20 -20 -20 -20 -20 -20 -20 -20 -13 -20 -20 -2 12 16 8 14 21 26 29 28 32 33 28 24 23 21 -8 -20 -20
-20 -14 -12 2 11 12 9 16 26 23 11 6 -6 -8 -20 -20 -20 -20 -20 -20 -20 -20 -20 -20 -20 -12 6 19 11 20 20 29 30 29 31 29 28 26 9 -20 -20 -20 -20
-20 -12 -10 2 12 27 9 15 4 8 5 -3 -14 -19 -18 -20 -20 -20 -20 -13 -20 -19 -9 11 -13 -18 1 -8 13 24 26 29 30 31 31 30 28 28 -12 -20 -20 -20 -20
-20 -20 -14 8 3 -20 -19 -7 4 1 -15 -19 -19 -20 -20 -20 -20 -20 -20 -20 -16 8 -3 5 -4 -19 -20 9 15 16 25 27 29 29 28 26 23 22 -18 -20 -20 -20 -20
-20 -20 -20 -20 -20 -2 -3 13 -1 -20 -20 -20 -20 -20 -20 -20 -20 -20 -20 -20 -20 -19 11 14 17 21 2 23 20 20 24 10 12 -1 2 -8 9 14 11 -11 -20 -20 -20
-20 -20 -20 -15 0 4 -18 -20 -20 -20 -20 -20 -20 -20 -20 -20 -20 -20 -20 -20 -19 -9 23 26 14 7 12 18 23 22 -20 -20 -20 -19 -16 -12 19 25 19 12 -20 -20 -20
-20 -20 -20 -20 -19 4 4 1 -5 -16 -20 -20 -20 -20 -20 -20 -20 -20 -14 -19 -20 -17 -1 21 9 10 15 23 18 2 -15 -20 -19 -20 -17 -4 12 22 19 -3 -20 -20 -20
9 -20 -16 -20 -20 -20 -20 -20 -20 -20 -20 -20 -20 -20 -20 -20 -20 -19 -20 -20 -20 8 9 10 19 18 21 23 22 12 -20 -19 2 -19 -20 16 24 26 17 -17 -20 -20 -20
4 16 18 -8 6 -20 -20 -20 -20 -20 -20 -20 -20 -20 -20 -17 -20 -14 -7 5 14 2 20 16 17 21 23 21 24 -20 1 17 12 -20 -20 -20 -6 24 -13 -20 -20 -20 -20
10 25 37 7 8 3 -20 -14 -20 -20 -20 -20 -20 -20 -20 -17 13 27 4 -14 22 4 19 22 15 -6 8 -7 -2 -20 3 22 3 -20 -20 -20 -20 -20 -20 -20 -20 -20 -20
-20 29 29 28 -8 -12 -3 -7 -20 -20 -20 -20 -20 -14 -4 -19 -10 -18 -11 1 -1 7 2 9 15 22 6 16 6 -17 22 22 -17 -20 -20 -20 -20 -20 -20 -20 -20 -20 -20

GFSMW_prec_radar_270.txt.gz
Reflectivity
-20 -20 -20 -20 -20 -20 -20 -20 -20 -20 -20 -20 -20 -20 -20 -20 -20 -20 -20 -20 -20 -20 -20 -20 -20 -20 -20 -20 -20 -20 -20 -20 -20 -20 -20 -20 -20 -20 -20 -20 -20 -20 -20
-20 -20 -20 -20 -20 -20 -20 -20 -20 -20 -20 -20 -20 -20 -20 -20 -20 -20 -20 -20 -20 -20 -20 -20 -20 -20 -20 -20 -20 -20 -20 -20 -20 -20 -20 -20 -20 -20 -20 -20 -20 -20 -20
-20 -20 -20 -20 -20 -20 -20 -20 -20 -20 -20 -20 -20 -20 -20 -20 -20 -20 -20 -20 -20 -20 -20 -20 -20 -20 -20 -20 -20 -20 -20 -20 -20 -20 -20 -20 -20 -20 -20 -20 -20 -20 -20
-20 -20 -20 -20 -20 -20 -20 -20 -20 -20 -20 -20 -20 -20 -20 -20 -20 -20 -20 -20 -20 -20 -20 -20 -20 -20 -20 -20 -20 -20 -20 -20 -20 -20 -20 -20 -20 -20 -20 -20 -20 -20 -20
-20 -20 -20 -20 -20 -20 -20 -20 -20 -20 -20 -20 -20 -20 -20 -20 -20 -20 -20 -20 -20 -20 -20 -20 -20 -20 -20 -20 -20 -20 -20 -20 -20 -20 -20 -20 -20 -20 -20 -20 -19 -20 -20
-20 -20 -20 -20 -20 -20 -20 -20 -20 -20 -20 -20 -20 -20 -20 -20 -20 -20 -20 -20 -20 -20 -20 -20 -20 -20 -20 -20 -20 -20 -20 -20 -20 -20 -20 -20 -20 -20 -20 -20 -20 -20 -20
-20 -20 -20 -20 -20 -20 -20 -20 -20 -20 -20 -20 -20 -20 -20 -20 -20 -20 -20 -20 -20 -20 -20 -20 -20 -20 -20 -20 -20 -20 -20 -20 -20 -20 -20 -20 -20 -20 -20 -20 -20 -20 -20
-20 -20 -20 -20 -20 -20 -20 -20 -20 -20 -20 -20 -20 -20 -20 -20 -20 -20 -20 -20 -20 -20 -20 -20 -20 -20 -20 -20 -20 -20 -20 -20 -20 -20 -20 -20 -20 -20 -20 -20 -20 -20 -20
-20 -20 -20 -20 -20 -20 -20 -20 -20 -20 -20 -20 -20 -20 -20 -20 -20 -20 -20 -20 -20 -20 -20 -20 -20 -20 -20 -20 -20 -20 -20 -20 -20 -20 -20 -20 -20 -20 -20 -20 -20 -20 -20
-20 -20 -20 -20 -20 -20 -20 -20 -20 -20 -20 -20 -20 -20 -20 -20 -20 -20 -20 -20 -20 -20 -20 -20 -20 -20 -20 -20 -20 -20 -20 -20 -20 -20 -20 -20 -20 -20 -20 -20 -20 -20 5
-20 -20 -20 -20 -20 -20 -20 -20 -20 -20 -20 -20 -20 -20 -20 -20 -20 -20 -20 -20 -20 -20 -20 -20 -20 -20 -20 -20 -20 -20 -20 -20 -20 -20 -20 -20 -20 -20 -19 -20 -20 3 -2
-20 -20 -20 -20 -20 -20 -20 -20 -20 -20 -20 -20 -20 -20 -20 -20 -20 -20 -20 -20 -20 -20 -10 -13 -20 -20 -20 -20 -20 -20 -20 -20 -20 -20 -20 -20 -20 -20 -20 -19 11 2 22
-20 -20 -20 -20 -20 -20 -20 -20 -20 -20 -20 -20 -20 -18 -12 6 10 6 -11 -20 -20 6 10 -20 -20 -20 -20 -20 -20 -20 -20 -20 -20 -20 -16 -6 -12 -15 -14 8 19 25 27
-20 -20 -20 -20 -20 -20 -20 -20 -20 -20 -20 -20 -20 -20 -17 -4 -2 -0 -19 -13 20 16 -7 -11 -20 -20 -20 -20 -20 -20 -20 -20 -18 -19 -15 -15 -14 -19 12 26 30 27 17
-20 -20 -20 -20 -20 -20 -20 -20 -20 -20 -20 -20 -18 -18 8 6 5 -6 8 25 24 9 -19 -20 -16 -19 -20 -20 -20 -20 -20 -20 -20 -11 0 8 14 30 21 20 21 28 27
-20 -20 -20 -20 -20 -20 -20 -20 -20 -13 -12 -3 -18 -6 -7 -4 -0 14 16 22 0 7 5 2 -17 -20 -20 -20 -20 -20 0 0 -12 11 5 -3 22 26 22 20 17 25 28
-20 -20 -20 -20 -20 -20 -20 -20 -20 -20 -20 -20 -20 -20 -20 -20 -3 15 24 -3 9 13 5 -14 -19 -15 -20 -20 -20 -11 -20 -20 -18 1 7 4 3 23 22 17 22 22 26
-20 -20 -20 -20 -20 -20 -20 -20 -20 -20 -20 -9 4 25 26 27 21 23 19 21 18 5 0 4 -11 -20 -20 -20 -20 -19 -20 -20 -20 -20 -20 -6 12 19 19 25 25 26 26
-20 -20 -20 -20 -20 -20 -20 -20 -11 11 10 20 28 35 38 30 23 6 -4 -8 -19 -20 -18 -20 -19 -20 0 -12 -20 -3 -20 -15 -18 -20 -17 17 25 26 21 27 27 25 25
-20 -20 -20 -20 -20 -20 -20 -20 -20 -2 10 -20 6 35 26 18 13 9 -20 -20 -20 -20 -20 -20 -20 26 -5 -1 -20 -0 -20 -11 -6 -17 1 19 28 23 20 26 25 15 8
-20 -20 -20 -20 -20 -20 -20 -20 -20 -20 -20 -20 -3 -6 15 10 -7 -17 -18 -20 -20 -20 -20 -20 -20 -6 5 5 13 -6 -20 -14 -19 -11 -11 7 22 24 26 28 25 -6 -16
-20 -20 -20 -20 -20 -20 -20 -20 -20 -20 -9 -17 -20 -6 -9 -16 -2 2 -16 -3 -20 -14 -20 -20 -4 -8 9 10 14 11 6 -10 -20 -20 -20 27 17 23 24 26 -5 -20 -20
-20 -20 -20 -20 -20 -20 -20 -17 18 -14 -8 -20 -20 -20 -20 -19 -20 -20 -20 -20 -7 5 -20 -14 -18 -10 -8 -6 1 16 -13 -20 -20 -20 11 18 24 22 25 18 -20 -20 -20
-20 -20 -20 -20 -20 -20 -20 -7 7 35 -8 2 5 -2 0 -5 -18 -20 -5 -20 -8 -15 -17 -2 1 -2 -0 15 10 11 -4 -13 -14 10 -1 11 22 25 22 8 -20 -20 -20
-20 -20 -20 -20 -20 -10 -20 7 19 32 35 22 -17 -12 -20 -20 -20 -20 -20 -20 -20 -6 8 13 -5 9 11 12 20 20 -16 -18 10 4 -20 16 19 18 7 3 -20 -20 -20
-20 -20 -20 -20 -20 -16 -20 12 34 33 35 25 18 -5 -7 -20 -20 -20 -2 -17 -8 -7 -19 -4 11 6 5 15 6 3 12 17 6 -20 -20 10 17 -5 -3 -13 -20 -20 -20

GFSMW_prec_radar_273.txt.gz
Reflectivity
-20 -20 -20 -20 -20 -20 -20 -20 -20 -20 -20 -20 -20 -20 -20 -20 -20 -20 -20 -20 -20 -20 -20 -20 -20 -20 -20 -20 -20 -20 -20 -20 -20 -20 -20 -20 -20 -20 -20 -20 -20 -20 -20
-20 -20 -20 -20 -20 -20 -20 -20 -20 -20 -20 -20 -20 -20 -20 -20 -20 -20 -20 -20 -20 -20 -20 -20 -20 -20 -20 -20 -20 -20 -20 -20 -20 -20 -20 -20 -20 -20 -20 -20 -20 -20 -20
-20 -20 -20 -20 -20 -20 -20 -20 -20 -20 -20 -20 -20 -20 -20 -20 -20 -20 -20 -20 -20 -20 -20 -20 -20 -20 -20 -20 -20 -20 -20 -20 -20 -20 -20 -20 -20 -20 -20 -20 -20 -20 -20
-20 -20 -20 -20 -20 -20 -20 -20 -20 -20 -20 -20 -20 -20 -20 -20 -20 -20 -20 -20 -20 -20 -20 -20 -20 -20 -20 -20 -20 -20 -20 -20 -20 -20 -20 -20 -20 -20 -20 -20 -20 -20 -20
-20 -20 -20 -20 -20 -20 -20 -20 -20 -20 -20 -20 -20 -20 -20 -20 -20 -20 -20 -20 -20 -20 -20 -20 -20 -20 -20 -20 -20 -20 -20 -20 -20 -20 -20 -20 -20 -20 -20 -20 -20 -20 -20
-20 -20 -20 -20 -20 -20 -20 -20 -20 -20 -20 -20 -20 -20 -20 -20 -20 -20 -20 -20 -20 -20 -20 -20 -20 -20 -20 -20 -20 -20 -20 -20 -20 -20 -20 -20 -20 -20 -20 -20 -20 -20 -20
-20 -20 -20 -20 -20 -20 -20 -20 -20 -20 -20 -20 -20 -20 -20 -20 -20 -20 -20 -20 -20 -20 -20 -20 -20 -20 -20 -20 -20 -20 -20 -20 -20 -20 -20 -20 -20 -20 -20 -20 -20 -20 -20
-20 -20 -20 -20 -20 -20 -20 -20 -20 -20 -20 -20 -20 -20 -20 -20 -20 -20 -20 -20 -20 -20 -20 -20 -20 -20 -20 -20 -20 -20 -20 -20 -20 -20 -20 -20 -20 -20 -20 -20 -20 -20 -20
-20 -20 -20 -20 -20 -20 -20 -20 -20 -20 -20 -20 -20 -20 -20 -20 -20 -20 -20 -20 -20 -20 -20 -20 -20 -20 -20 -18 -20 -20 -20 -20 -20 -20 -20 -20 -20 -20 -20 -20 -20 -20 -20
-20 -20 -20 -20 -20 -20 -20 -20 -20 -20 -20 -20 -20 -20 -20 -20 -20 -20 -20 -20 -20 -20 -20 -20 -20 -20 -20 -20 -20 -20 -20 -20 -20 -20 -20 -20 -20 -20 -20 -20 -20 -20 -20
-20 -20 -20 -20 -20 -20 -20 -20 -20 -20 -20 -20 -20 -20 -20 -20 -20 -20 -20 -20 -17 -20 -20 -20 -20 -20 -20 -20 -15 -20 -20 -20 -20 -20 -20 -20 -20 -20 -20 -15 -20 -20 -20
-20 -20 -20 -20 -20 -20 -20 -20 -20 -20 -20 -20 -20 -20 -20 -20 -20 -14 1 5 0 -16 -20 -20 -20 -20 -19 8 -20 -20 -20 -20 -20 -20 -20 -20 -20 -19 -6 -13 -1 -20 -18
-20 -20 -20 -20 -20 -20 -20 -20 -20 -20 -20 -20 -20 -20 -20 -19 3 -17 -11 -20 -20 -15 -19 6 2 -16 19 -1 -20 -20 -20 -20 -20 -20 -19 -16 5 3 -19 -11 3 7 5
-20 -20 -20 -20 -20 -20 -20 -20 -20 -20 -20 -20 -20 -20 -20 -20 1 -8 -5 -20 -20 -19 -18 -9 12 23 -17 -20 -20 -20 -20 -20 -20 -20 -20 -15 -20 -17 -6 15 -10 -5 6
-20 -20 -20 -20 -20 -20 -20 -20 -20 -20 -20 -20 -20 -20 -20 -20 -20 -20 -20 -20 -20 7 1 -15 -1 -8 -13 -14 -20 -20 -20 -20 -20 -20 -20 -20 2 10 3 1 13 2 22
-20 -20 -20 -20 -20 -20 -20 -20 -20 -20 -20 -20 -20 -20 -20 -14 4 14 -9 -20 -12 9 7 17 12 6 -5 -20 -20 -20 -20 -20 -2 0 -19 -20 8 -4 9 20 18 10 21
-20 -20 -20 -20 -20 -20 -20 -20 -20 -20 -20 -20 -20 -20 -20 -20 -20 -3 -3 -10 -7 -4 -4 19 19 -2 -12 -20 -20 -20 -14 -20 -10 -19 -20 -18 -10 3 -9 18 4 12 20
-20 -20 -20 -20 -20 -20 -20 -20 -20 -20 -20 -20 -20 -20 -20 -7 20 30 32 32 29 33 16 9 1 -3 -20 -20 -20 -20 -20 -20 -20 -20 -20 -20 -9 2 13 -7 15 20 19
-20 -20 -20 -20 -20 -20 -20 -20 -20 -20 -20 -20 -20 -18 2 27 37 35 32 33 32 25 17 11 4 -17 -20 -20 -20 -20 -8 -20 -20 -20 -9 -5 -5 24 12 4 16 18 23
-20 -20 -20 -20 -20 -20 -20 -20 -20 -20 -20 -19 -20 -20 10 -10 -13 0 22 26 12 -8 -1 -15 -2 -14 -18 -17 3 -20 3 -20 -20 -20 4 8 -1 14 14 21 24 16 17
-20 -20 -20 -20 -20 -20 -20 -20 -20 -20 -20 1 -6 -20 -20 -20 -14 20 21 21 16 2 -2 -14 -20 -20 13 3 -1 -1 -20 -20 -20 -11 -16 -20 -7 14 18 26 26 25 21
-20 -20 -20 -20 -20 -20 -20 -20 -20 -17 -14 12 11 -19 -20 -14 -11 -11 -4 8 6 -19 -15 -20 -20 -20 -18 26 8 10 1 2 -20 -20 -20 -17 2 20 20 28 26 15 4
-20 -20 -20 -20 -20 -20 -20 -20 -20 -20 -20 -6 31 27 8 -20 -20 3 11 18 -1 -20 -20 -20 -20 15 11 5 7 18 17 -7 -20 -20 -11 -13 16 23 27 25 17 -4 -19
-20 -20 -20 -20 -20 -20 -20 -20 -20 -9 -19 -2 21 34 42 -1 -7 -18 -20 -19 -20 -11 -20 -20 -20 -10 7 13 15 -6 7 -19 -20 -20 -19 -15 22 25 30 22 3 -14 -17
-20 -20 -20 -20 -20 -20 -20 -20 -20 6 -14 6 14 36 36 34 26 4 -8 -17 -20 -9 -20 -20 -20 -16 -19 -13 20 14 -10 -20 -4 11 1 -5 22 28 22 18 -12 -20 -20
-20 -20 -20 -20 -20 -20 -20 -20 -5 -13 -1 14 18 32 39 38 16 10 -3 11 -10 -2 -0 13 -7 -14 -2 2 16 11 3 7 11 -4 -3 -6 18 12 8 3 -3 -12 -20

GFSMW_prec_radar_279.txt.gz
Reflectivity
-20 -20 -20 -20 -20 -20 -20 -20 -20 -20 -20 -20 -20 -20 -20 -20 -20 -20 -20 -20 -20 -20 -20 -20 -20 -20 -20 -20 -20 -20 -20 -20 -20 -20 -20 -20 -20 -20 -20 -20 -20 -20 -20
-20 -20 -20 -20 -20 -20 -20 -20 -20 -20 -20 -20 -20 -20 -20 -20 -20 -20 -20 -20 -20 -20 -20 -20 -20 -20 -20 -20 -20 -20 -20 -20 -20 -20 -20 -20 -20 -20 -20 -20 -20 -20 -20
-20 -20 -20 -20 -20 -20 -20 -20 -20 -20 -20 -20 -20 -20 -20 -20 -20 -20 -20 -20 -20 -20 -20 -20 -20 -20 -20 -20 -20 -20 -20 -20 -20 -20 -20 -20 -20 -20 -20 -20 -20 -20 -20
-20 -20 -20 -20 -20 -20 -20 -20 -20 -20 -20 -20 -20 -20 -20 -20 -20 -20 -20 -20 -20 -20 -20 -20 -20 -20 -20 -20 -20 -20 -20 -20 -20 -20 -20 -20 -20 -20 -20 -20 -20 -20 -20
-20 -20 -20 -20 -20 -20 -20 -20 -20 -20 -20 -20 -20 -20 -20 -20 -20 -20 -20 -20 -20 -20 -20 -20 -20 -20 -20 -20 -20 -20 -20 -20 -20 -20 -20 -20 -20 -20 -20 -20 -20 -20 -20
-20 -20 -20 -20 -20 -20 -20 -20 -20 -20 -20 -20 -20 -20 -20 -20 -20 -20 -20 -20 -20 -20 -20 -20 -20 -20 -20 -20 -20 -20 -20 -20 -20 -20 -20 -20 -20 -20 -20 -20 -20 -20 -20
-20 -20 -20 -20 -20 -20 -20 -20 -20 -20 -20 -20 -20 -20 -20 -20 -20 -20 -20 -20 -20 -20 -20 -20 -20 -20 -20 -20 -20 -20 -20 -20 -20 -20 -20 -20 -20 -20 -20 -20 -20 -20 -20
-20 -20 -20 -20 -20 -20 -20 -20 -20 -20 -20 -20 -20 -20 -20 -20 -20 -20 -20 -20 -20 -20 -20 -20 -20 -20 -20 -20 -20 -20 -20 -20 -20 -20 -20 -20 -20 -19 -20 -20 -20 -20 -20
-20 -20 -20 -20 -20 -20 -20 -20 -20 -20 -20 -20 -20 -20 -20 -20 -20 -20 -20 -20 -20 -20 -20 -20 -20 -20 -20 -20 -20 -20 -12 -19 -20 -20 -20 -9 -15 -20 -20 -20 -20 -20 -20
-20 -20 -20 -20 -20 -20 -20 -20 -20 -20 -20 -20 -20 -20 -20 -20 -20 -20 -20 -20 -20 -20 -20 -20 -20 -20 -20 -20 -20 -20 -20 -20 -1 -5 -20 -20 -20 -20 -20 -20 -20 -20 -20
-20 -20 -20 -20 -20 -20 -20 -20 -20 -20 -20 -20 -20 -20 -20 -20 -20 -20 -20 -20 -20 -20 -20 -20 -20 -20 -20 -20 -20 -20 -20 1 9 -18 -20 -20 -20 -20 -20 -20 -20 -20 -20
-20 -20 -20 -20 -20 -20 -20 -20 -20 -20 -20 -20 -20 -20 -20 -20 -20 -20 -20 -20 -20 -20 -20 -20 5 -20 -20 -20 -20 -20 8 10 -3 -20 -20 -20 -20 -20 -20 -20 -20 -20 -10
-20 -20 -20 -20 -20 -20 -20 -20 -20 -20 -20 -20 -20 -20 -20 -20 -20 -20 -20 -20 -20 -20 -20 -18 -3 1 -18 -18 -16 11 10 -0 -7 -3 3 -20 -20 -20 -20 -20 -20 -20 -9
-20 -20 -20 -20 -20 -20 -20 -20 -20 -20 -20 -20 -20 -20 -20 -20 -20 -20 -20 -20 -20 -20 -20 -20 -15 27 18 9 3 -6 -20 1 23 -7 -13 -20 -20 -20 -20 -20 -16 2 10
-20 -20 -20 -20 -20 -20 -20 -20 -20 -20 -20 -20 -20 -20 -20 -20 -20 -20 -20 -20 -20 -7 12 -3 -4 -6 28 29 21 20 -5 11 18 18 -12 -20 -20 -20 -20 -20 -20 -20 -9
-20 -20 -20 -20 -20 -20 -20 -20 -20 -20 -20 -20 -20 -20 -20 -20 -20 -20 -20 -20 -20 -20 3 -18 19 32 32 35 36 32 21 4 23 -10 -20 -20 -20 -20 -20 -20 -20 7 1
-20 -20 -20 -20 -20 -20 -20 -20 -20 -20 -20 -20 -20 -20 -20 -20 -20 -20 -20 -20 -20 -20 -20 -6 -16 -20 -18 24 23 26 26 27 22 5 -20 -20 -20 -13 -20 2 -20 -10 12
-20 -20 -20 -20 -20 -20 -20 -20 -20 -20 -20 -20 -20 -20 -20 -20 -20 -20 -17 -20 -20 -20 7 -12 15 28 28 33 32 27 31 27 18 -19 -20 -16 -20 -20 -16 -20 -20 -20 -18
-20 -20 -20 -20 -20 -20 -20 -20 -20 -20 -20 -20 -20 -20 -20 -20 -20 1 2 6 -9 -1 7 8 13 21 20 27 18 28 28 27 15 -3 -4 -20 -20 -20 12 -19 -20 -3 4
-20 -20 -20 -20 -20 -20 -20 -20 -20 -20 -20 -20 -20 -20 -20 -20 -14 -1 5 8 19 24 28 31 8 22 32 25 33 32 28 20 7 5 -13 -20 -5 2 18 -14 -10 -6 -13
-20 -20 -20 -20 -20 -20 -20 -20 -20 -20 -20 -20 -20 -20 -20 -20 -20 -4 7 3 15 30 33 32 12 5 3 28 28 25 32 11 -2 -18 -20 -20 -3 -17 17 9 11 1 -10
-20 -20 -20 -20 -20 -20 -20 -20 -20 -20 -20 -20 -20 -20 -20 -20 -14 -17 -4 -17 14 16 31 37 28 16 18 33 26 24 13 7 -18 -20 -20 -11 4 -16 12 8 19 9 -9
-20 -20 -20 -20 -20 -20 -20 -20 -20 -20 -20 -20 -20 -20 -20 -16 -12 -0 -10 -3 -2 17 38 26 30 15 38 6 21 13 7 23 -17 -20 -20 4 6 -17 15 15 17 2 -10
-20 -20 -20 -20 -20 -20 -20 -20 -20 -20 -20 -20 -20 -20 -20 -2 -10 -18 6 8 9 26 28 31 34 36 8 27 4 4 -0 16 -20 -20 -20 1 11 15 19 15 3 -15 5
-20 -20 -20 -20 -20 -20 -20 -20 -20 -20 -20 -20 -20 -20 0 -9 7 -1 6 10 1 19 37 38 33 29 31 5 -12 8 -2 -9 -20 -19 -20 -19 -6 11 1 -12 -5 -11 11
-20 -20 -20 -20 -20 -20 -20 -20 -20 -20 -20 -20 -18 -20 -17 -2 9 -14 8 26 29 38 38 36 29 28 20 -3 -9 6 14 14 1 -20 -20 -9 4 -7 -4 -11 -20 -20 -20

GFSMW_prec_radar_282.txt.gz
Reflectivity
-20 -20 -20 -20 -20 -20 -20 -20 -20 -20 -20 -20 -20 -20 -20 -20 -20 -20 -20 -20 -20 -20 -20 -20 -20 -20 -20 -20 -20 -20 -20 -20 -20 -20 -20 -20 -20 -20 -20 -20 -20 -20 -20
-20 -20 -20 -20 -20 -20 -20 -20 -20 -20 -20 -20 -20 -20 -20 -20 -20 -20 -20 -20 -20 -20 -20 -20 -20 -20 -20 -20 -20 -20 -20 -20 -20 -20 -20 -20 -20 -20 -20 -20 -20 -20 -20
-20 -20 -20 -20 -20 -20 -20 -20 -20 -20 -20 -20 -20 -20 -20 -20 -20 -20 -20 -20 -20 -20 -20 -20 -20 -20 -20 -20 -20 -20 -20 -20 -20 -20 -20 -20 -20 -20 -20 -20 -20 -20 -20
-20 -20 -20 -20 -20 -20 -20 -20 -20 -20 -20 -20 -20 -20 -20 -20 -20 -20 -20 -20 -20 -20 -20 -20 -20 -20 -20 -20 -20 -20 -20 -20 -20 -20 -20 -20 -20 -20 -20 -20 -20 -20 -20
-20 -20 -20 -20 -20 -20 -20 -20 -20 -20 -20 -20 -20 -20 -20 -20 -20 -20 -20 -20 -20 -20 -20 -20 -20 -20 -20 -20 -20 -20 -20 -20 -20 -20 -20 -20 -20 -20 -20 -20 -20 -20 -20
-20 -20 -20 -20 -20 -20 -20 -20 -20 -20 -20 -20 -20 -20 -20 -20 -20 -20 -20 -20 -20 -20 -20 -20 -20 -20 -20 -20 -20 -20 -20 -20 -20 -20 -20 -20 -20 -20 -20 -20 -20 -20 -20
-20 -20 -20 -20 -20 -20 -20 -20 -20 -20 -20 -20 -20 -20 -20 -20 -20 -20 -20 -20 -20 -20 -20 -20 -20 -20 -20 -20 -20 -20 -20 -20 -20 -20 -20 -20 -20 -20 -20 -20 -20 -20 -20
-20 -20 -20 -20 -20 -20 -20 -20 -20 -20 -20 -20 -20 -20 -20 -20 -20 -20 -20 -20 -20 -20 -20 -20 -20 -20 -20 -20 -20 -20 -20 -20 -20 -20 -20 -20 -20 -20 -20 -20 -20 -20 -20
-20 -20 -20 -20 -20 -20 -20 -20 -20 -20 -20 -20 -20 -20 -20 -20 -20 -20 -20 -20 -20 -20 -20 -20 -20 -20 -20 -20 -20 -20 -20 -20 -20 -20 -20 -20 -20 -2 0 -20 -20 -20 -20
-20 -20 -20 -20 -20 -20 -20 -20 -20 -20 -20 -20 -20 -20 -20 -20 -20 -20 -20 -20 -20 -20 -20 -18 -10 10 -11 -20 -20 -20 -20 -20 -20 -20 -20 -20 5 -17 -20 -20 -20 -20 -20
-20 -20 -20 -20 -20 -20 -20 -20 -20 -20 -20 -20 -20 -20 -20 -20 -20 -20 -20 -20 -17 -20 -20 -8 -15 -18 8 2 -13 -20 -15 -20 -20 -20 -19 3 6 -20 -20 -20 -20 -20 -20
-20 -20 -20 -20 -20 -20 -20 -20 -20 -20 -20 -20 -20 -20 -20 -20 -20 -20 -20 -20 -20 -20 -19 7 -19 -20 -20 -20 -19 -4 -20 -20 -20 -20 -20 -15 -20 -20 -20 -20 -20 -20 -20
-20 -20 -20 -20 -20 -20 -20 -20 -20 -20 -20 -20 -20 -20 -20 -20 -20 -20 -20 -20 -20 -20 -20 -16 -11 -20 -20 -20 -20 -16 22 23 -19 -16 -14 -13 -20 -20 -20 -20 -20 -20 -20
-20 -20 -20 -20 -20 -20 -20 -20 -20 -20 -20 -20 -20 -20 -20 -20 -20 -20 -20 -20 -20 -20 -20 -14 5 -18 -20 -5 14 6 20 21 22 10 16 13 18 -12 -20 -20 -20 -20 -20
-20 -20 -20 -20 -20 -20 -20 -20 -20 -20 -20 -20 -20 -20 -20 -20 -20 -20 -20 -20 -20 -20 -20 -20 -20 -20 2 -4 -9 20 19 21 25 32 31 29 29 -4 -20 -20 -20 -20 -20
-20 -20 -20 -20 -20 -20 -20 -20 -20 -20 -20 -20 -20 -20 -20 -20 -20 -20 -20 -20 -20 -20 -20 -20 -20 -20 -20 -20 9 21 27 31 28 25 25 32 32 2 -19 -20 -20 -20 -20
-20 -20 -20 -20 -20 -20 -20 -20 -20 -20 -20 -20 -20 -20 -20 -20 -20 -20 -20 -20 -20 -20 -20 -20 5 -14 -20 -9 15 13 -1 -10 17 26 29 30 3 -20 -20 -16 -20 -19 1
-20 -20 -20 -20 -20 -20 -20 -20 -20 -20 -20 -20 -20 -20 -20 -20 -20 -20 -20 -20 -20 -7 -20 -20 -13 18 20 29 2 24 30 29 26 28 29 22 -20 -1 -20 -20 -20 -20 -20
-20 -20 -20 -20 -20 -20 -20 -20 -20 -20 -20 -20 -20 -20 -20 -20 -20 -20 -20 -20 -20 -20 -18 -20 -5 -15 32 10 25 28 31 35 35 28 33 -13 -1 6 -3 2 -11 -20 -20
-20 -20 -20 -20 -20 -20 -20 -20 -20 -20 -20 -20 -20 -20 -20 -20 -20 -20 -20 -20 -20 -15 -5 -18 13 12 17 37 30 26 6 37 36 33 11 10 -5 5 -13 -20 -20 -20 -13
-20 -20 -20 -20 -20 -20 -20 -20 -20 -20 -20 -20 -20 -20 -20 -20 -20 -20 -20 -20 -10 -20 -20 -9 8 5 23 22 32 28 33 28 31 26 2 -14 4 -16 -6 -18 -20 -11 -5
-20 -20 -20 -20 -20 -20 -20 -20 -20 -20 -20 -20 -20 -20 -20 -20 -20 -20 -20 -20 -20 -11 -8 -18 11 5 25 33 34 29 18 28 12 -4 -16 -9 -12 -12 -16 -15 7 11 -18
-20 -20 -20 -20 -20 -20 -20 -20 -20 -20 -20 -20 -20 -20 -20 -20 -20 -20 -6 -6 -19 -2 0 -1 18 12 12 31 39 31 28 19 6 -2 -17 -20 -0 -20 -7 15 10 3 -20
-20 -20 -20 -20 -20 -20 -20 -20 -20 -20 -20 -20 -20 -20 -20 -20 -20 -20 7 9 -20 -10 9 -2 17 12 28 36 35 34 20 16 13 5 -16 -20 -18 -18 5 12 -1 -20 -20
-20 -20 -20 -20 -20 -20 -20 -20 -20 -20 -20 -20 -20 -20 -20 -20 -20 -17 -4 -10 -11 9 11 10 32 24 33 31 29 21 19 13 -18 -20 -20 -20 -20 -9 0 -17 -20 -20 -20
-20 -20 -20 -20 -20 -20 -20 -20 -20 -20 -20 -20 -20 -20 -20 -20 -16 8 4 11 17 17 1 23 34 35 39 36 34 30 18 20 -1 -20 -20 -20 -19 -15 5 -20 -20 -20 -20